Red Oak, IA

9:33 AM CST on February 20, 2017 (GMT -0600)
Red Oak Municipal

Weather History for KRDK - November, 2011

Change the Weather History Date:

Friday, November 18, 2011

  Actual Average Record
Temperature  
Mean Temperature 47 °F -  
Max Temperature 59 °F 49 °F 75 °F (1999)
Min Temperature 35 °F 30 °F 6 °F (2014)
Degree Days  
Heating Degree Days 18    
Moisture  
Dew Point 29 °F    
Average Humidity 55    
Maximum Humidity 76    
Minimum Humidity 33    
Precipitation  
Precipitation 0.00 in - - ()
Sea Level Pressure  
Sea Level Pressure 29.75 in    
Wind  
Wind Speed 15 mph (South)    
Max Wind Speed 26 mph    
Max Gust Speed 34 mph    
Visibility 10 miles    
Events      
Averages and records for this station are not official NWS values.
T = Trace of Precipitation, MM = Missing Value Source: NWS Daily Summary

Daily Weather History Graph

Daily Weather History Graph

Search for Another Location

Airport or City:

Trip Planner

Search our weather history database for the weather conditions in past years. The results will help you decide how hot, cold, wet, or windy it might be!

Date:

Astronomy

Nov. 18, 2011 Rise Set
Actual Time 7:11 AM CST 5:00 PM CST
Civil Twilight 6:42 AM CST 5:29 PM CST
Nautical Twilight 6:08 AM CST 6:03 PM CST
Astronomical Twilight 5:36 AM CST 6:35 PM CST
Moon No Moon Rise 12:50 PM CST (11/18)
Length of Visible Light 10h 47m
Length of Day
9h 48m
Waning Gibbous, 49% of the Moon is Illuminated
Nov 18
Waning Gibbous
Nov 25
New
Dec 2
First Quarter
Dec 10
Full
Dec 17
Last Quarter

Hourly Weather History & Observations

Time (CST) Temp. Windchill Dew Point Humidity Pressure Visibility Wind Dir Wind Speed Gust Speed Precip Events Conditions
12:15 AM 37.4 °F 29.8 °F 21.2 °F 52% 29.93 in 10.0 mi South 11.5 mph - N/A   Clear
12:35 AM 37.4 °F 28.9 °F 21.2 °F 52% 29.92 in 10.0 mi South 13.8 mph 19.6 mph N/A   Clear
12:55 AM 37.4 °F 28.2 °F 21.2 °F 52% 29.90 in 10.0 mi South 16.1 mph 23.0 mph N/A   Clear
1:15 AM 37.4 °F 27.8 °F 23.0 °F 56% 29.89 in 10.0 mi South 17.3 mph 23.0 mph N/A   Clear
1:35 AM 37.4 °F 28.2 °F 23.0 °F 56% 29.88 in 10.0 mi South 16.1 mph 23.0 mph N/A   Clear
2:35 AM 37.4 °F 27.5 °F 23.0 °F 56% 29.87 in 10.0 mi South 18.4 mph 23.0 mph N/A   Clear
2:55 AM 37.4 °F 27.8 °F 23.0 °F 56% 29.86 in 10.0 mi South 17.3 mph - N/A   Clear
3:15 AM 37.4 °F 29.3 °F 24.8 °F 60% 29.86 in 10.0 mi South 12.7 mph 20.7 mph N/A   Clear
3:35 AM 37.4 °F 27.8 °F 24.8 °F 60% 29.85 in 10.0 mi South 17.3 mph 23.0 mph N/A   Clear
3:55 AM 35.6 °F 26.6 °F 24.8 °F 65% 29.84 in 10.0 mi South 13.8 mph 20.7 mph N/A   Clear
4:15 AM 35.6 °F 26.6 °F 24.8 °F 65% 29.84 in 10.0 mi South 13.8 mph - N/A   Clear
4:35 AM 35.6 °F 27.5 °F 24.8 °F 65% 29.84 in 10.0 mi South 11.5 mph - N/A   Clear
4:55 AM 35.6 °F 27.5 °F 24.8 °F 65% 29.83 in 10.0 mi South 11.5 mph 16.1 mph N/A   Clear
5:35 AM 35.6 °F 25.5 °F 24.8 °F 65% 29.82 in 10.0 mi South 17.3 mph - N/A   Clear
6:15 AM 37.4 °F 28.2 °F 24.8 °F 60% 29.81 in 10.0 mi South 16.1 mph - N/A   Clear
6:35 AM 37.4 °F 28.9 °F 24.8 °F 60% 29.81 in 10.0 mi South 13.8 mph - N/A   Clear
6:55 AM 37.4 °F 28.9 °F 24.8 °F 60% 29.81 in 10.0 mi South 13.8 mph - N/A   Clear
7:15 AM 37.4 °F 28.5 °F 24.8 °F 60% 29.80 in 10.0 mi South 15.0 mph - N/A   Clear
7:35 AM 37.4 °F 27.8 °F 24.8 °F 60% 29.81 in 10.0 mi South 17.3 mph - N/A   Clear
7:55 AM 39.2 °F 30.2 °F 24.8 °F 56% 29.80 in 10.0 mi South 17.3 mph 23.0 mph N/A   Clear
8:15 AM 41.0 °F 32.2 °F 24.8 °F 53% 29.80 in 10.0 mi South 18.4 mph 23.0 mph N/A   Clear
8:35 AM 42.8 °F 34.5 °F 24.8 °F 49% 29.80 in 10.0 mi South 18.4 mph 23.0 mph N/A   Clear
8:55 AM 42.8 °F 34.8 °F 26.6 °F 53% 29.81 in 10.0 mi South 17.3 mph 25.3 mph N/A   Clear
9:35 AM 46.4 °F 38.5 °F 26.6 °F 46% 29.80 in 10.0 mi South 21.9 mph 27.6 mph N/A   Clear
9:55 AM 48.2 °F - 26.6 °F 43% 29.79 in 10.0 mi South 21.9 mph 28.8 mph N/A   Clear
10:15 AM 48.2 °F - 26.6 °F 43% 29.79 in 10.0 mi SSW 21.9 mph 28.8 mph N/A   Clear
10:35 AM 50.0 °F - 26.6 °F 40% 29.79 in 10.0 mi SSW 19.6 mph 31.1 mph N/A   Clear
10:55 AM 51.8 °F - 26.6 °F 38% 29.76 in 10.0 mi South 24.2 mph 34.5 mph N/A   Clear
11:15 AM 51.8 °F - 26.6 °F 38% 29.75 in 10.0 mi South 26.5 mph 33.4 mph N/A   Clear
11:35 AM 53.6 °F - 26.6 °F 35% 29.73 in 10.0 mi SSW 25.3 mph 29.9 mph N/A   Clear
11:55 AM 53.6 °F - 28.4 °F 38% 29.72 in 10.0 mi South 25.3 mph 32.2 mph N/A   Clear
12:15 PM 53.6 °F - 28.4 °F 38% 29.71 in 10.0 mi SSW 20.7 mph 32.2 mph N/A   Clear
12:35 PM 53.6 °F - 28.4 °F 38% 29.70 in 10.0 mi South 24.2 mph 33.4 mph N/A   Clear
12:55 PM 55.4 °F - 28.4 °F 36% 29.70 in 10.0 mi SSW 24.2 mph 31.1 mph N/A   Clear
1:35 PM 57.2 °F - 28.4 °F 33% 29.68 in 10.0 mi South 23.0 mph 31.1 mph N/A   Clear
1:55 PM 57.2 °F - 28.4 °F 33% 29.67 in 10.0 mi South 21.9 mph 26.5 mph N/A   Clear
2:15 PM 57.2 °F - 28.4 °F 33% 29.66 in 10.0 mi South 24.2 mph 33.4 mph N/A   Clear
2:55 PM 59.0 °F - 30.2 °F 34% 29.66 in 10.0 mi South 19.6 mph 26.5 mph N/A   Clear
3:15 PM 57.2 °F - 30.2 °F 36% 29.66 in 10.0 mi SSW 19.6 mph 27.6 mph N/A   Clear
3:55 PM 57.2 °F - 32.0 °F 38% 29.65 in 10.0 mi SSW 20.7 mph 26.5 mph N/A   Clear
4:15 PM 57.2 °F - 32.0 °F 38% 29.65 in 10.0 mi SSW 19.6 mph 26.5 mph N/A   Clear
4:35 PM 55.4 °F - 33.8 °F 44% 29.65 in 10.0 mi South 12.7 mph - N/A   Clear
4:55 PM 53.6 °F - 33.8 °F 47% 29.66 in 10.0 mi SSW 9.2 mph - N/A   Clear
5:15 PM 51.8 °F - 33.8 °F 50% 29.66 in 10.0 mi SSW 5.8 mph - N/A   Clear
5:35 PM 48.2 °F - 33.8 °F 58% 29.67 in 10.0 mi SSW 5.8 mph - N/A   Scattered Clouds
5:55 PM 48.2 °F - 33.8 °F 58% 29.68 in 10.0 mi SSW 4.6 mph - N/A   Scattered Clouds
6:15 PM 46.4 °F 42.9 °F 35.6 °F 66% 29.68 in 10.0 mi SSW 6.9 mph - N/A   Clear
6:35 PM 46.4 °F 45.2 °F 33.8 °F 62% 29.68 in 10.0 mi SSW 3.5 mph - N/A   Scattered Clouds
6:55 PM 46.4 °F 44.3 °F 35.6 °F 66% 29.69 in 10.0 mi SSW 4.6 mph - N/A   Scattered Clouds
7:15 PM 42.8 °F 39.3 °F 33.8 °F 70% 29.69 in 10.0 mi South 5.8 mph - N/A   Scattered Clouds
7:35 PM 42.8 °F 40.1 °F 35.6 °F 76% 29.70 in 10.0 mi SSW 4.6 mph - N/A   Clear
7:55 PM 44.6 °F 41.4 °F 35.6 °F 71% 29.70 in 10.0 mi SSW 5.8 mph - N/A   Clear
8:15 PM 44.6 °F 41.4 °F 35.6 °F 71% 29.70 in 10.0 mi South 5.8 mph - N/A   Clear
8:55 PM 44.6 °F 40.7 °F 35.6 °F 71% 29.71 in 10.0 mi South 6.9 mph - N/A   Clear
9:15 PM 44.6 °F 40.2 °F 35.6 °F 71% 29.70 in 10.0 mi South 8.1 mph - N/A   Scattered Clouds
9:35 PM 44.6 °F 40.2 °F 35.6 °F 71% 29.70 in 10.0 mi South 8.1 mph - N/A   Scattered Clouds
9:55 PM 44.6 °F 40.7 °F 33.8 °F 66% 29.70 in 10.0 mi South 6.9 mph - N/A   Clear
10:15 PM 42.8 °F 39.3 °F 33.8 °F 70% 29.70 in 10.0 mi South 5.8 mph - N/A   Clear
10:35 PM 42.8 °F 40.1 °F 33.8 °F 70% 29.69 in 10.0 mi South 4.6 mph - N/A   Clear
10:55 PM 42.8 °F 39.3 °F 33.8 °F 70% 29.69 in 10.0 mi South 5.8 mph - N/A   Scattered Clouds
11:15 PM 42.8 °F 38.0 °F 33.8 °F 70% 29.68 in 10.0 mi South 8.1 mph - N/A   Scattered Clouds
11:35 PM 42.8 °F 38.6 °F 33.8 °F 70% 29.68 in 10.0 mi South 6.9 mph - N/A   Scattered Clouds
11:55 PM 42.8 °F 38.6 °F 32.0 °F 66% 29.69 in 10.0 mi South 6.9 mph - N/A   Clear